[[{"header":{"parameterUnit":"m.s-1","parameterCategory":2,"la1":30.2991,"la2":30.254,"lo1":-89.0895,"lo2":-89.0444,"dy":0.0017,"dx":0.0017,"nx":28,"ny":28,"refTime":"2023-11-02T09:00:00:Z","depth":"0","parameterNumber":2,"parameterNumberName":"U-component_of_CURRENTS"},"data":[0,0,0,0,0,0,0,0,0,0,0,0,0,0,0,0,0,0,0,0,0,0,0,0,0,0,0,0,0,0,0,0,0,0,0,0,0,0,0,0,0,0,0,0,0,0,0,0,0,0,0,0,0,0,0,0,0,0,-0.2535,-0.2535,0,-0.255,-0.255,-0.255,-0.2512,-0.2511,-0.251,-0.2509,-0.2497,-0.2498,-0.2498,0,0,0,0,0,0,0,0,0,0,0,0,0,-0.2471,-0.2473,-0.2535,-0.2536,-0.2536,-0.255,-0.255,-0.255,-0.2512,-0.2511,-0.251,-0.2509,-0.2497,-0.2498,-0.2498,0,0,0,0,0,0,0,0,0,0,0,0,0,-0.2491,-0.2473,-0.2535,-0.2521,-0.252,-0.255,-0.255,-0.255,-0.2512,-0.2511,-0.251,-0.2508,-0.2497,-0.2498,-0.2498,-0.253,0,0,-0.2501,-0.2501,0,0,0,0,0,0,0,0,-0.249,-0.2493,-0.2523,-0.2522,-0.2521,-0.2531,-0.2523,-0.2543,-0.2513,-0.2512,-0.2509,-0.2508,-0.2509,-0.2509,-0.251,-0.253,-0.2529,-0.2501,-0.2501,-0.2502,-0.2502,0,0,0,0,0,0,0,-0.2489,-0.2492,-0.2538,-0.2523,-0.2523,-0.2514,-0.2515,-0.2527,-0.2515,-0.2512,-0.251,-0.2517,-0.2508,-0.251,-0.251,-0.2529,-0.2501,-0.2502,-0.2502,-0.2502,-0.2563,-0.2564,0,0,0,0,0,0,-0.2495,-0.2491,-0.2537,-0.2538,-0.2506,-0.2516,-0.2517,-0.2526,-0.2515,-0.2513,-0.2518,-0.2515,-0.2509,-0.2509,-0.2509,-0.2542,-0.2502,-0.2502,-0.2503,-0.2562,-0.2564,-0.2565,0,0,0,0,0,0,-0.2494,-0.2499,-0.2537,-0.2517,-0.2522,-0.2519,-0.253,-0.2527,-0.2525,-0.2521,-0.2518,-0.2518,-0.2508,-0.2508,-0.2519,-0.2542,-0.2503,-0.2503,-0.2561,-0.2563,-0.2564,-0.2611,0,0,0,0,0,0,-0.2492,-0.2499,-0.2502,-0.2518,-0.2523,-0.2557,-0.2531,-0.2529,-0.2534,-0.253,-0.252,-0.2518,-0.2507,-0.2518,-0.252,-0.2542,-0.2504,-0.2559,-0.2562,-0.2564,-0.2608,-0.2615,-0.262,0,0,0,0,0,-0.249,-0.2502,-0.2502,-0.2507,-0.253,-0.2558,-0.256,-0.2551,-0.2535,-0.2542,-0.2532,-0.2518,-0.2533,-0.252,-0.2522,-0.2544,-0.2558,-0.2561,-0.2564,-0.2606,-0.2613,-0.262,0,0,0,0,0,0,-0.2473,-0.2501,-0.25,-0.2519,-0.2539,-0.2553,-0.2557,-0.2556,-0.2555,-0.2546,-0.2533,-0.2532,-0.255,-0.2544,-0.2529,-0.2569,-0.2544,-0.2547,-0.2575,-0.2582,-0.2588,-0.2583,-0.2505,0,0,0,0,0,-0.2475,-0.2488,-0.2516,-0.2529,-0.2542,-0.2551,-0.2558,-0.2559,-0.2565,-0.2561,-0.2557,-0.2555,-0.2566,-0.2569,-0.2574,-0.2599,-0.2589,-0.2615,-0.262,-0.2625,-0.2623,-0.2631,-0.2637,-0.2573,-0.2573,-0.2573,0,0,-0.2469,-0.2488,-0.2493,-0.2526,-0.2537,-0.2567,-0.255,-0.2569,-0.259,-0.2563,-0.2579,-0.2576,-0.2577,-0.26,-0.2608,-0.2595,-0.264,-0.2628,-0.2633,-0.2628,-0.2634,-0.264,-0.2645,-0.2575,-0.2575,-0.2575,0,0,-0.2475,-0.2487,-0.2503,-0.2529,-0.2558,-0.2572,-0.2581,-0.2602,-0.2604,-0.2628,-0.2614,-0.2623,-0.2637,-0.2643,-0.2648,-0.2692,-0.267,-0.2695,-0.272,-0.2728,-0.2733,-0.2737,-0.2739,-0.2742,-0.2697,-0.2697,-0.2697,0,-0.2467,-0.2494,-0.2512,-0.2544,-0.2565,-0.2579,-0.2608,-0.2625,-0.2645,-0.2655,-0.2637,-0.2663,-0.266,-0.2695,-0.2702,-0.2705,-0.2699,-0.2693,-0.2735,-0.2739,-0.2742,-0.2742,-0.2746,-0.27,-0.2699,-0.2699,-0.2699,0,-0.2493,-0.2516,-0.2531,-0.2575,-0.2603,-0.2629,-0.2666,-0.2685,-0.2689,-0.2705,-0.2733,-0.2728,-0.2739,-0.2748,-0.2735,-0.2767,-0.2752,-0.2741,-0.2715,-0.2751,-0.2749,-0.2752,-0.2703,-0.2702,-0.2702,-0.2701,0,0,-0.2462,-0.2534,-0.2536,-0.2563,-0.262,-0.2646,-0.269,-0.2734,-0.2764,-0.2776,-0.2806,-0.282,-0.2808,-0.2813,-0.2804,-0.281,-0.2829,-0.2783,-0.2782,-0.278,-0.2841,-0.2823,-0.2825,-0.2822,-0.2823,-0.2823,-0.2831,0,-0.2469,-0.2529,-0.2564,-0.2617,-0.265,-0.2689,-0.2734,-0.2778,-0.2805,-0.2841,-0.2845,-0.2868,-0.2839,-0.284,-0.2844,-0.2836,-0.2838,-0.2827,-0.2809,-0.2808,-0.2785,-0.2828,-0.2752,-0.2752,-0.2834,-0.2835,-0.2835,0,-0.2473,-0.2516,-0.2568,-0.2644,-0.2662,-0.2697,-0.2765,-0.2806,-0.2868,-0.2891,-0.2913,-0.2917,-0.2932,-0.2896,-0.2897,-0.2889,-0.2863,-0.2853,-0.2852,-0.2819,-0.2797,-0.2729,-0.2754,-0.2725,-0.2839,-0.2839,-0.2839,0,-0.2434,-0.2512,-0.255,-0.2577,-0.2669,-0.2695,-0.2737,-0.2811,-0.2849,-0.2911,-0.2941,-0.2966,-0.2968,-0.2953,-0.2924,-0.2909,-0.2921,-0.29,-0.2862,-0.286,-0.2783,-0.2774,-0.2772,-0.2894,-0.2894,-0.2894,-0.2894,0,-0.2423,-0.2451,-0.2533,-0.2556,-0.2602,-0.2673,-0.2725,-0.2778,-0.2855,-0.2901,-0.2947,-0.2981,-0.2979,-0.2985,-0.2951,-0.2922,-0.2941,-0.2873,-0.2866,-0.2799,-0.2791,-0.2751,-0.2753,-0.2894,-0.2894,-0.2894,-0.2894,0,-0.2367,-0.2424,-0.2468,-0.2557,-0.2581,-0.2607,-0.2699,-0.2737,-0.2826,-0.2885,-0.2902,-0.2988,-0.3004,-0.3003,-0.2989,-0.2953,-0.2884,-0.2909,-0.283,-0.2814,-0.2747,-0.2755,-0.272,-0.264,-0.2872,-0.2872,-0.2872,0,-0.2343,-0.2359,-0.244,-0.2453,-0.2485,-0.254,-0.2575,-0.2691,-0.2739,-0.2881,-0.2899,-0.2964,-0.2998,-0.3001,-0.2958,-0.292,-0.2864,-0.2818,-0.2777,-0.2743,-0.2746,-0.2721,-0.2653,-0.2693,-0.2692,-0.269,-0.2689,0,-0.2277,-0.23,-0.2329,-0.2366,-0.2397,-0.2443,-0.2508,-0.255,-0.2684,-0.2763,-0.2859,-0.291,-0.2957,-0.2919,-0.2893,-0.2843,-0.2753,-0.2788,-0.277,-0.2626,-0.258,-0.2499,-0.2691,-0.2677,-0.2678,-0.2679,-0.2679,-0.268,-0.2199,-0.2197,-0.2228,-0.2252,-0.2286,-0.2316,-0.2318,-0.2427,-0.2503,-0.2614,-0.2742,-0.2838,-0.2862,-0.2832,-0.2779,-0.2671,-0.2673,-0.2592,-0.261,-0.2592,-0.2498,-0.2668,-0.2638,-0.2639,-0.264,-0.2641,-0.2641,0,-0.2096,-0.21,-0.2112,-0.2131,-0.2117,-0.2185,-0.2244,-0.2241,-0.2299,-0.2484,-0.2582,-0.274,-0.2702,-0.2711,-0.2642,-0.2534,-0.2424,-0.2453,-0.239,-0.233,-0.2492,-0.2466,-0.2377,-0.2377,-0.2377,-0.2377,-0.2377,-0.2377,-0.2038,-0.2004,-0.2017,-0.1951,-0.1958,-0.1907,-0.1912,-0.1951,-0.2058,-0.2217,-0.2413,-0.2616,-0.2662,-0.2782,-0.262,-0.2473,-0.235,-0.2283,-0.2265,-0.2389,-0.2402,-0.2415,-0.239,-0.2287,-0.2287,-0.2018,-0.2016,-0.2015]},{"header":{"parameterUnit":"m.s-1","parameterCategory":2,"la1":30.2991,"la2":30.254,"lo1":-89.0895,"lo2":-89.0444,"dy":0.0017,"dx":0.0017,"nx":28,"ny":28,"refTime":"2023-11-02T09:00:00:Z","depth":"0","parameterNumber":3,"parameterNumberName":"V-component_of_CURRENTS"},"data":[0,0,0,0,0,0,0,0,0,0,0,0,0,0,0,0,0,0,0,0,0,0,0,0,0,0,0,0,0,0,0,0,0,0,0,0,0,0,0,0,0,0,0,0,0,0,0,0,0,0,0,0,0,0,0,0,0,0,-0.0383,-0.0382,0,-0.0308,-0.0308,-0.0307,-0.026,-0.026,-0.026,-0.026,-0.0154,-0.0152,-0.0149,0,0,0,0,0,0,0,0,0,0,0,0,0,-0.0449,-0.0449,-0.0383,-0.0382,-0.0381,-0.0308,-0.0307,-0.0306,-0.026,-0.026,-0.026,-0.0259,-0.0155,-0.0152,-0.0149,0,0,0,0,0,0,0,0,0,0,0,0,0,-0.0403,-0.0448,-0.0383,-0.0349,-0.0345,-0.0309,-0.0307,-0.0306,-0.0261,-0.026,-0.026,-0.0259,-0.0156,-0.0152,-0.0148,-0.0133,0,0,-0.0137,-0.0135,0,0,0,0,0,0,0,0,-0.0405,-0.04,-0.0355,-0.0351,-0.0347,-0.0293,-0.0292,-0.0247,-0.0261,-0.0293,-0.026,-0.0259,-0.0198,-0.0191,-0.0178,-0.0128,-0.0124,-0.0136,-0.0134,-0.0132,-0.0131,0,0,0,0,0,0,0,-0.0409,-0.0403,-0.0353,-0.0354,-0.0349,-0.0325,-0.0319,-0.0283,-0.0248,-0.029,-0.0286,-0.0278,-0.0195,-0.0182,-0.0175,-0.0122,-0.0137,-0.0133,-0.0131,-0.0129,-0.0053,-0.0053,0,0,0,0,0,0,-0.042,-0.0406,-0.0356,-0.0351,-0.0375,-0.0325,-0.0317,-0.0311,-0.0249,-0.0239,-0.0278,-0.0276,-0.0189,-0.018,-0.0171,-0.015,-0.0132,-0.0129,-0.0127,-0.0052,-0.0053,-0.0053,0,0,0,0,0,0,-0.0421,-0.0416,-0.0359,-0.0377,-0.0368,-0.0324,-0.0317,-0.031,-0.0295,-0.0241,-0.023,-0.0272,-0.0188,-0.0177,-0.0143,-0.0146,-0.0127,-0.0124,-0.0052,-0.0053,-0.0053,-0.0107,0,0,0,0,0,0,-0.0424,-0.0417,-0.0419,-0.0378,-0.0367,-0.0344,-0.0317,-0.0308,-0.0291,-0.0287,-0.0232,-0.0221,-0.0187,-0.0149,-0.0139,-0.014,-0.0121,-0.0052,-0.0052,-0.0053,-0.0105,-0.0109,-0.0113,0,0,0,0,0,-0.0426,-0.0431,-0.042,-0.0414,-0.037,-0.0344,-0.0337,-0.0304,-0.0291,-0.0289,-0.0251,-0.0223,-0.0145,-0.0146,-0.0135,-0.0134,-0.0052,-0.0052,-0.0053,-0.0103,-0.0108,-0.0113,0,0,0,0,0,0,-0.0462,-0.0426,-0.0412,-0.0406,-0.0381,-0.0337,-0.0332,-0.0309,-0.0278,-0.0274,-0.0223,-0.021,-0.0183,-0.0153,-0.0155,-0.0115,-0.0095,-0.0093,-0.0137,-0.0142,-0.0146,-0.0157,-0.0118,0,0,0,0,0,-0.0471,-0.0467,-0.0428,-0.0425,-0.0414,-0.0375,-0.0361,-0.0339,-0.0305,-0.029,-0.0251,-0.0211,-0.0177,-0.0155,-0.0123,-0.0097,-0.0061,-0.0091,-0.0095,-0.0099,-0.01,-0.0045,-0.0044,-0.0055,-0.0055,-0.0055,0,0,-0.0485,-0.0464,-0.0462,-0.0433,-0.041,-0.0404,-0.0366,-0.035,-0.0341,-0.0284,-0.0263,-0.0224,-0.0175,-0.0149,-0.0134,-0.0122,-0.0079,-0.0099,-0.0103,-0.0102,-0.0046,-0.0045,-0.0044,-0.0055,-0.0055,-0.0055,0,0,-0.0516,-0.0492,-0.0502,-0.0483,-0.0454,-0.0428,-0.0426,-0.0385,-0.0364,-0.0338,-0.0297,-0.0259,-0.0209,-0.0171,-0.0146,-0.0151,-0.0104,-0.0145,-0.0168,-0.0115,-0.0114,-0.0112,-0.0074,-0.0068,-0.0143,-0.0144,-0.0144,0,-0.0536,-0.054,-0.0501,-0.0504,-0.0495,-0.0443,-0.0452,-0.0422,-0.0376,-0.0358,-0.0341,-0.0259,-0.0219,-0.0176,-0.018,-0.0159,-0.0128,-0.0154,-0.012,-0.0118,-0.0115,-0.0076,-0.0069,-0.0146,-0.0146,-0.0146,-0.0145,0,-0.0572,-0.0576,-0.0579,-0.0567,-0.0549,-0.0549,-0.0502,-0.0484,-0.0452,-0.0415,-0.0369,-0.0306,-0.0257,-0.0239,-0.021,-0.0172,-0.0156,-0.0134,-0.0109,-0.0117,-0.0076,-0.0068,-0.015,-0.0149,-0.0148,-0.0148,0,0,-0.0616,-0.061,-0.0611,-0.0623,-0.0584,-0.0578,-0.0558,-0.0527,-0.0521,-0.0456,-0.0432,-0.0363,-0.032,-0.0289,-0.024,-0.0192,-0.0148,-0.0162,-0.0157,-0.0127,-0.0041,0.0014,0.0029,-0.0119,-0.0118,-0.0117,-0.0024,0,-0.066,-0.0694,-0.0667,-0.0694,-0.0709,-0.0655,-0.0641,-0.0601,-0.0562,-0.0524,-0.0432,-0.039,-0.034,-0.0317,-0.026,-0.0173,-0.0128,-0.0176,-0.0036,-0.0032,0.0017,0.004,0.0073,0.0163,-0.0016,-0.0014,-0.0013,0,-0.0704,-0.0723,-0.0762,-0.0767,-0.0767,-0.0766,-0.0743,-0.0726,-0.065,-0.061,-0.0539,-0.0468,-0.0374,-0.0337,-0.0185,-0.0218,-0.0141,-0.0073,-0.0067,0.0011,0.004,0.0145,0.0185,0.0343,0.0,-0.0001,-0.0002,0,-0.0766,-0.0788,-0.0827,-0.0828,-0.0819,-0.0821,-0.0808,-0.0755,-0.0744,-0.0662,-0.0636,-0.0513,-0.0446,-0.0324,-0.0171,-0.018,-0.0004,0.0003,0.0125,0.0129,0.0199,0.0207,0.0409,0.01,0.01,0.0099,0.0099,0,-0.0825,-0.0855,-0.0863,-0.0886,-0.0928,-0.0887,-0.0911,-0.0879,-0.0823,-0.0813,-0.0686,-0.0641,-0.044,-0.031,-0.0182,0.001,-0.0006,0.013,0.0165,0.018,0.0185,0.0359,0.0435,0.0103,0.0102,0.0101,0.0101,0,-0.0888,-0.0891,-0.0943,-0.0955,-0.0962,-0.0992,-0.0985,-0.1,-0.093,-0.0911,-0.0879,-0.072,-0.0539,-0.0338,-0.0127,-0.0001,0.0284,0.0234,0.0235,0.027,0.0526,0.0596,0.085,0.0935,0.0382,0.0384,0.0386,0,-0.0925,-0.0959,-0.1008,-0.1049,-0.106,-0.109,-0.111,-0.1059,-0.1064,-0.0965,-0.0954,-0.077,-0.0638,-0.0283,-0.0014,0.0249,0.0376,0.0425,0.042,0.0563,0.0666,0.072,0.0776,0.0483,0.0486,0.0488,0.0489,0,-0.0997,-0.1011,-0.1055,-0.1143,-0.1187,-0.1232,-0.1248,-0.1264,-0.1198,-0.1163,-0.1076,-0.096,-0.0583,-0.0247,0.013,0.0291,0.0568,0.0473,0.0632,0.0781,0.0844,0.0934,0.0386,0.0507,0.0505,0.0504,0.0503,0.0502,-0.1044,-0.1097,-0.1157,-0.124,-0.1299,-0.136,-0.1399,-0.1405,-0.1408,-0.135,-0.1187,-0.1,-0.0446,0.01,0.0302,0.0757,0.0718,0.0867,0.0942,0.0985,0.1076,0.0563,0.0719,0.0718,0.0718,0.0717,0.0717,0,-0.1102,-0.1161,-0.1249,-0.1342,-0.1425,-0.1428,-0.1482,-0.1509,-0.1533,-0.142,-0.1302,-0.0737,-0.0201,0.0315,0.0988,0.1211,0.1255,0.132,0.1403,0.1437,0.0996,0.1008,0.1222,0.1222,0.1221,0.1221,0.1221,0.1221,-0.1133,-0.123,-0.1281,-0.143,-0.1494,-0.1588,-0.1623,-0.1656,-0.1588,-0.1403,-0.112,-0.0873,-0.005,0.1084,0.1672,0.1698,0.187,0.1855,0.1948,0.1639,0.1601,0.1565,0.1596,0.1929,0.193,0.2355,0.2359,0.2363]}],[{"header":{"parameterUnit":"m.s-1","parameterCategory":2,"la1":30.2991,"la2":30.254,"lo1":-89.0895,"lo2":-89.0444,"dy":0.0017,"dx":0.0017,"nx":28,"ny":28,"refTime":"2023-11-02T09:00:00:Z","depth":"2","parameterNumber":2,"parameterNumberName":"U-component_of_CURRENTS"},"data":[0,0,0,0,0,0,0,0,0,0,0,0,0,0,0,0,0,0,0,0,0,0,0,0,0,0,0,0,0,0,0,0,0,0,0,0,0,0,0,0,0,0,0,0,0,0,0,0,0,0,0,0,0,0,0,0,0,0,-0.2455,-0.2456,0,-0.247,-0.247,-0.247,-0.2436,-0.2435,-0.2434,-0.2433,-0.2423,-0.2424,-0.2424,0,0,0,0,0,0,0,0,0,0,0,0,0,-0.2393,-0.2394,-0.2455,-0.2456,-0.2456,-0.247,-0.247,-0.247,-0.2436,-0.2435,-0.2434,-0.2433,-0.2423,-0.2423,-0.2424,0,0,0,0,0,0,0,0,0,0,0,0,0,-0.2412,-0.2394,-0.2455,-0.2443,-0.2442,-0.247,-0.247,-0.247,-0.2436,-0.2435,-0.2434,-0.2433,-0.2423,-0.2423,-0.2424,-0.2453,0,0,-0.2426,-0.2427,0,0,0,0,0,0,0,0,-0.2411,-0.2414,-0.2444,-0.2444,-0.2443,-0.2453,-0.2445,-0.2464,-0.2436,-0.2435,-0.2433,-0.2432,-0.2434,-0.2433,-0.2435,-0.2452,-0.2452,-0.2426,-0.2427,-0.2427,-0.2427,0,0,0,0,0,0,0,-0.241,-0.2413,-0.2458,-0.2445,-0.2445,-0.2436,-0.2437,-0.2448,-0.2438,-0.2435,-0.2434,-0.2441,-0.2433,-0.2434,-0.2434,-0.2452,-0.2426,-0.2427,-0.2427,-0.2428,-0.2487,-0.2488,0,0,0,0,0,0,-0.2416,-0.2412,-0.2457,-0.2459,-0.2427,-0.2438,-0.2439,-0.2448,-0.2438,-0.2437,-0.2442,-0.2439,-0.2433,-0.2433,-0.2434,-0.2468,-0.2427,-0.2428,-0.2428,-0.2486,-0.2487,-0.2488,0,0,0,0,0,0,-0.2415,-0.242,-0.2457,-0.2438,-0.2442,-0.2441,-0.2451,-0.2449,-0.2449,-0.2444,-0.2441,-0.2443,-0.2433,-0.2433,-0.2444,-0.2467,-0.2428,-0.2429,-0.2484,-0.2486,-0.2488,-0.2537,0,0,0,0,0,0,-0.2413,-0.242,-0.2423,-0.2439,-0.2444,-0.2477,-0.2453,-0.2451,-0.2457,-0.2453,-0.2445,-0.2443,-0.2432,-0.2443,-0.2445,-0.2468,-0.2429,-0.2483,-0.2485,-0.2487,-0.2533,-0.254,-0.2545,0,0,0,0,0,-0.2411,-0.2423,-0.2423,-0.2429,-0.2451,-0.2478,-0.248,-0.2472,-0.2458,-0.2465,-0.2457,-0.2443,-0.2458,-0.2445,-0.2447,-0.247,-0.2482,-0.2484,-0.2487,-0.2531,-0.2538,-0.2545,0,0,0,0,0,0,-0.2395,-0.2422,-0.2422,-0.244,-0.246,-0.2474,-0.2479,-0.2478,-0.2478,-0.2471,-0.2458,-0.2456,-0.2476,-0.2469,-0.2455,-0.2494,-0.2468,-0.2471,-0.2501,-0.2508,-0.2514,-0.2509,-0.243,0,0,0,0,0,-0.2397,-0.241,-0.2438,-0.2451,-0.2463,-0.2472,-0.248,-0.2481,-0.2488,-0.2485,-0.2482,-0.248,-0.2491,-0.2494,-0.2499,-0.2523,-0.2513,-0.2539,-0.2545,-0.255,-0.2548,-0.2556,-0.2562,-0.2497,-0.2497,-0.2497,0,0,-0.2392,-0.241,-0.2415,-0.2448,-0.2459,-0.2488,-0.2473,-0.2492,-0.2512,-0.2487,-0.2504,-0.2501,-0.2502,-0.2525,-0.2533,-0.252,-0.2565,-0.2553,-0.2557,-0.2552,-0.2559,-0.2565,-0.2571,-0.2498,-0.2498,-0.2498,0,0,-0.2399,-0.241,-0.2427,-0.2452,-0.2481,-0.2495,-0.2504,-0.2525,-0.2528,-0.2553,-0.2539,-0.2549,-0.2563,-0.2568,-0.2573,-0.2616,-0.2596,-0.262,-0.2646,-0.2654,-0.2659,-0.2664,-0.2666,-0.267,-0.2622,-0.2623,-0.2623,0,-0.2392,-0.2418,-0.2436,-0.2467,-0.2487,-0.2502,-0.253,-0.2548,-0.2568,-0.2579,-0.2562,-0.2589,-0.2586,-0.2619,-0.2628,-0.263,-0.2625,-0.2619,-0.2661,-0.2665,-0.2669,-0.267,-0.2673,-0.2625,-0.2625,-0.2625,-0.2624,0,-0.2417,-0.244,-0.2455,-0.2498,-0.2525,-0.2551,-0.2587,-0.2607,-0.2613,-0.2629,-0.2658,-0.2654,-0.2665,-0.2673,-0.2661,-0.2693,-0.2679,-0.2668,-0.2641,-0.2678,-0.2677,-0.268,-0.2629,-0.2628,-0.2627,-0.2627,0,0,-0.2387,-0.2457,-0.246,-0.2486,-0.2542,-0.2568,-0.2612,-0.2656,-0.2686,-0.2699,-0.273,-0.2744,-0.2734,-0.2738,-0.273,-0.2736,-0.2758,-0.2711,-0.271,-0.2709,-0.2771,-0.2751,-0.2752,-0.2751,-0.2752,-0.2753,-0.2762,0,-0.2395,-0.2453,-0.2488,-0.2539,-0.2572,-0.261,-0.2655,-0.2699,-0.2726,-0.2763,-0.2768,-0.2792,-0.2764,-0.2767,-0.2771,-0.2764,-0.2767,-0.2756,-0.2738,-0.2737,-0.2713,-0.2756,-0.2517,-0.2505,-0.2765,-0.2765,-0.2765,0,-0.2399,-0.244,-0.2492,-0.2566,-0.2584,-0.2619,-0.2686,-0.2727,-0.2789,-0.2812,-0.2835,-0.284,-0.2857,-0.2822,-0.2825,-0.2817,-0.2793,-0.2783,-0.2783,-0.2747,-0.2724,-0.2509,-0.25,-0.277,-0.277,-0.277,-0.2769,0,-0.236,-0.2437,-0.2475,-0.2501,-0.2592,-0.2618,-0.2659,-0.2732,-0.277,-0.2833,-0.2863,-0.2889,-0.2893,-0.2879,-0.2853,-0.2838,-0.2851,-0.2831,-0.2792,-0.279,-0.2574,-0.2552,-0.2826,-0.2826,-0.2826,-0.2826,-0.2826,0,-0.2349,-0.2378,-0.2459,-0.2481,-0.2527,-0.2597,-0.2649,-0.2702,-0.2778,-0.2823,-0.287,-0.2903,-0.2904,-0.2911,-0.2879,-0.285,-0.2871,-0.2803,-0.2795,-0.2587,-0.2567,-0.2783,-0.2778,-0.2826,-0.2826,-0.2826,-0.2826,0,-0.2294,-0.2351,-0.2394,-0.2483,-0.2508,-0.2534,-0.2624,-0.2662,-0.2751,-0.2808,-0.2825,-0.2911,-0.2927,-0.2928,-0.2916,-0.288,-0.2859,-0.2838,-0.2597,-0.2562,-0.2784,-0.2781,-0.2801,-0.2801,-0.2801,-0.28,-0.28,0,-0.227,-0.2287,-0.2368,-0.2381,-0.2414,-0.2469,-0.2504,-0.2618,-0.2664,-0.2803,-0.2821,-0.2886,-0.2913,-0.2918,-0.2848,-0.2804,-0.2851,-0.2575,-0.2512,-0.2793,-0.2783,-0.2781,-0.278,-0.2238,-0.2233,-0.2229,-0.2226,0,-0.2206,-0.223,-0.2258,-0.2297,-0.2328,-0.2374,-0.2438,-0.2478,-0.2609,-0.2682,-0.2774,-0.2819,-0.2839,-0.2701,-0.2664,-0.2601,-0.2569,-0.2497,-0.2834,-0.2304,-0.2268,-0.2258,-0.2272,-0.219,-0.2194,-0.2196,-0.2198,-0.22,-0.213,-0.2128,-0.2161,-0.2185,-0.222,-0.2248,-0.225,-0.2345,-0.2413,-0.2483,-0.262,-0.2617,-0.2599,-0.2442,-0.2328,-0.2229,-0.2409,-0.2279,-0.2287,-0.2301,-0.2257,-0.2225,-0.213,-0.2133,-0.2135,-0.2138,-0.214,0,-0.2026,-0.2035,-0.2047,-0.2067,-0.205,-0.2121,-0.2176,-0.2149,-0.2185,-0.2285,-0.2346,-0.2141,-0.2075,-0.2059,-0.1857,-0.184,-0.1774,-0.1756,-0.1644,-0.1682,-0.1715,-0.1637,-0.1347,-0.1344,-0.1342,-0.134,0,0,-0.1968,-0.1935,-0.1947,-0.1882,-0.1893,-0.1836,-0.1838,-0.183,-0.1864,-0.1839,-0.1845,-0.201,-0.2044,-0.1701,-0.1612,-0.1451,-0.155,-0.1381,-0.202,-0.1927,-0.1957,-0.2022,-0.1948,0,0,0,0,0]},{"header":{"parameterUnit":"m.s-1","parameterCategory":2,"la1":30.2991,"la2":30.254,"lo1":-89.0895,"lo2":-89.0444,"dy":0.0017,"dx":0.0017,"nx":28,"ny":28,"refTime":"2023-11-02T09:00:00:Z","depth":"2","parameterNumber":3,"parameterNumberName":"V-component_of_CURRENTS"},"data":[0,0,0,0,0,0,0,0,0,0,0,0,0,0,0,0,0,0,0,0,0,0,0,0,0,0,0,0,0,0,0,0,0,0,0,0,0,0,0,0,0,0,0,0,0,0,0,0,0,0,0,0,0,0,0,0,0,0,-0.0296,-0.0295,0,-0.0224,-0.0223,-0.0222,-0.0178,-0.0178,-0.0178,-0.0177,-0.0074,-0.0072,-0.0069,0,0,0,0,0,0,0,0,0,0,0,0,0,-0.036,-0.0359,-0.0296,-0.0295,-0.0294,-0.0224,-0.0223,-0.0222,-0.0178,-0.0178,-0.0178,-0.0177,-0.0075,-0.0072,-0.0069,0,0,0,0,0,0,0,0,0,0,0,0,0,-0.0314,-0.0359,-0.0296,-0.0264,-0.026,-0.0224,-0.0223,-0.0222,-0.0178,-0.0178,-0.0177,-0.0177,-0.0076,-0.0072,-0.0069,-0.0052,0,0,-0.0057,-0.0055,0,0,0,0,0,0,0,0,-0.0317,-0.0312,-0.027,-0.0266,-0.0262,-0.021,-0.0207,-0.0163,-0.0178,-0.0209,-0.0177,-0.0177,-0.0117,-0.011,-0.0097,-0.0047,-0.0043,-0.0057,-0.0054,-0.0053,-0.0052,0,0,0,0,0,0,0,-0.032,-0.0315,-0.0268,-0.0269,-0.0264,-0.024,-0.0234,-0.0199,-0.0165,-0.0207,-0.0203,-0.0195,-0.0114,-0.0101,-0.0094,-0.0041,-0.0057,-0.0053,-0.0051,-0.005,0.0026,0.0026,0,0,0,0,0,0,-0.0331,-0.0318,-0.027,-0.0265,-0.0289,-0.024,-0.0232,-0.0227,-0.0166,-0.0157,-0.0196,-0.0193,-0.0108,-0.0099,-0.0091,-0.0071,-0.0053,-0.0049,-0.0047,0.0026,0.0026,0.0026,0,0,0,0,0,0,-0.0333,-0.0328,-0.0273,-0.029,-0.0281,-0.0239,-0.0233,-0.0226,-0.0212,-0.0158,-0.0148,-0.019,-0.0107,-0.0096,-0.0063,-0.0066,-0.0047,-0.0044,0.0027,0.0026,0.0026,-0.0029,0,0,0,0,0,0,-0.0335,-0.0329,-0.0332,-0.0291,-0.0281,-0.0259,-0.0233,-0.0224,-0.0208,-0.0204,-0.015,-0.014,-0.0106,-0.0069,-0.006,-0.0061,-0.0041,0.0027,0.0027,0.0026,-0.0027,-0.0031,-0.0035,0,0,0,0,0,-0.0338,-0.0344,-0.0332,-0.0326,-0.0285,-0.0259,-0.0252,-0.0221,-0.0208,-0.0207,-0.017,-0.0142,-0.0066,-0.0066,-0.0055,-0.0055,0.0027,0.0027,0.0026,-0.0025,-0.003,-0.0035,0,0,0,0,0,0,-0.0373,-0.0338,-0.0325,-0.032,-0.0295,-0.0252,-0.0248,-0.0226,-0.0196,-0.0193,-0.0142,-0.013,-0.0104,-0.0073,-0.0075,-0.0036,-0.0016,-0.0014,-0.0059,-0.0063,-0.0067,-0.0078,-0.0038,0,0,0,0,0,-0.0382,-0.0379,-0.0341,-0.0339,-0.0329,-0.029,-0.0277,-0.0256,-0.0222,-0.0209,-0.017,-0.0131,-0.0097,-0.0076,-0.0043,-0.0019,0.0017,-0.0013,-0.0017,-0.002,-0.0022,0.0031,0.0032,0.0024,0.0024,0.0024,0,0,-0.0396,-0.0377,-0.0375,-0.0347,-0.0325,-0.0319,-0.0282,-0.0267,-0.0259,-0.0202,-0.0182,-0.0145,-0.0095,-0.007,-0.0056,-0.0044,-0.0002,-0.0021,-0.0025,-0.0024,0.0031,0.0032,0.0032,0.0023,0.0024,0.0024,0,0,-0.0428,-0.0405,-0.0416,-0.0397,-0.037,-0.0344,-0.0342,-0.0303,-0.0282,-0.0258,-0.0217,-0.018,-0.0131,-0.0093,-0.0068,-0.0074,-0.0027,-0.0067,-0.0091,-0.004,-0.0039,-0.0037,-0.0,0.0005,-0.0066,-0.0066,-0.0066,0,-0.0448,-0.0453,-0.0415,-0.0419,-0.041,-0.036,-0.0369,-0.0339,-0.0294,-0.0278,-0.0261,-0.0181,-0.0141,-0.0099,-0.0103,-0.0082,-0.0051,-0.0077,-0.0045,-0.0043,-0.004,-0.0003,0.0004,-0.0069,-0.0069,-0.0069,-0.0068,0,-0.0484,-0.0489,-0.0493,-0.0481,-0.0465,-0.0464,-0.0419,-0.0402,-0.0371,-0.0335,-0.029,-0.0228,-0.018,-0.0162,-0.0133,-0.0097,-0.0081,-0.0059,-0.0034,-0.0043,-0.0003,0.0005,-0.0073,-0.0072,-0.0071,-0.0071,0,0,-0.0529,-0.0523,-0.0525,-0.0537,-0.0499,-0.0494,-0.0475,-0.0444,-0.044,-0.0376,-0.0353,-0.0285,-0.0244,-0.0213,-0.0165,-0.0118,-0.0076,-0.0088,-0.0084,-0.0054,0.0028,0.008,0.0094,-0.0048,-0.0046,-0.0045,0.0045,0,-0.0573,-0.0607,-0.0581,-0.0609,-0.0623,-0.0571,-0.0557,-0.0518,-0.048,-0.0443,-0.0354,-0.0313,-0.0264,-0.0242,-0.0186,-0.0101,-0.0057,-0.0103,0.0034,0.0038,0.0084,0.0104,0.007,0.0151,0.0053,0.0054,0.0055,0,-0.0618,-0.0636,-0.0676,-0.0681,-0.068,-0.068,-0.0659,-0.0643,-0.0568,-0.053,-0.0461,-0.0391,-0.03,-0.0263,-0.0114,-0.0147,-0.0071,-0.0004,0.0002,0.0077,0.0106,0.0147,0.017,0.0069,0.0068,0.0067,0.0066,0,-0.0679,-0.0701,-0.074,-0.0741,-0.0732,-0.0735,-0.0723,-0.0672,-0.0661,-0.0582,-0.0557,-0.0437,-0.0372,-0.0253,-0.0102,-0.0111,0.0061,0.0069,0.0186,0.019,0.0202,0.0206,0.0163,0.0163,0.0163,0.0163,0.0163,0,-0.0737,-0.0768,-0.0776,-0.0799,-0.0841,-0.0801,-0.0826,-0.0795,-0.0741,-0.0731,-0.0607,-0.0563,-0.0366,-0.024,-0.0114,0.0073,0.0058,0.019,0.0225,0.0181,0.0182,0.0144,0.014,0.0166,0.0165,0.0165,0.0164,0,-0.08,-0.0803,-0.0856,-0.0868,-0.0875,-0.0905,-0.09,-0.0914,-0.0847,-0.0829,-0.0799,-0.0642,-0.0466,-0.0269,-0.0063,0.0061,0.0228,0.029,0.0225,0.0251,0.0319,0.0311,0.0427,0.043,0.0432,0.0434,0.0436,0,-0.0837,-0.087,-0.092,-0.0961,-0.0973,-0.1004,-0.1024,-0.0974,-0.0978,-0.0883,-0.0872,-0.0694,-0.0564,-0.0218,0.0036,0.0289,0.0285,0.0404,0.039,0.0328,0.035,0.0338,0.0328,0.0374,0.0375,0.0376,0.0377,0,-0.0908,-0.0923,-0.0967,-0.1055,-0.1099,-0.1144,-0.116,-0.1175,-0.1111,-0.1077,-0.0993,-0.088,-0.0522,-0.0225,0.0138,0.0281,0.0367,0.043,0.0395,0.0318,0.0288,0.0306,0.0296,0.0384,0.0383,0.0383,0.0382,0.0382,-0.0954,-0.1007,-0.1068,-0.1151,-0.121,-0.127,-0.1308,-0.1305,-0.1307,-0.1233,-0.1092,-0.0894,-0.0564,-0.0056,0.0211,0.0465,0.0447,0.0508,0.0502,0.0495,0.0478,0.0454,0.0578,0.0578,0.0578,0.0579,0.0579,0,-0.1008,-0.1071,-0.1159,-0.1252,-0.1329,-0.1338,-0.139,-0.1395,-0.1407,-0.1281,-0.1159,-0.0801,-0.0431,-0.0088,0.0311,0.0554,0.0529,0.06,0.0512,0.0504,0.0497,0.0477,0.0578,0.0579,0.0579,0.058,0,0,-0.1038,-0.1133,-0.1183,-0.1328,-0.1396,-0.1479,-0.1513,-0.1504,-0.1415,-0.131,-0.1146,-0.0864,-0.0435,-0.0148,0.017,0.0382,0.0381,0.0407,0.0382,0.0233,0.0223,0.0419,0.0376,0,0,0,0,0]}],[{"header":{"parameterUnit":"m.s-1","parameterCategory":2,"la1":30.2991,"la2":30.254,"lo1":-89.0895,"lo2":-89.0444,"dy":0.0017,"dx":0.0017,"nx":28,"ny":28,"refTime":"2023-11-02T09:00:00:Z","depth":"4","parameterNumber":2,"parameterNumberName":"U-component_of_CURRENTS"},"data":[0,0,0,0,0,0,0,0,0,0,0,0,0,0,0,0,0,0,0,0,0,0,0,0,0,0,0,0,0,0,0,0,0,0,0,0,0,0,0,0,0,0,0,0,0,0,0,0,0,0,0,0,0,0,0,0,0,0,-0.1746,-0.1746,0,-0.1802,-0.1803,-0.1803,-0.1836,-0.1836,-0.1836,-0.1836,-0.1892,-0.1893,-0.1894,0,0,0,0,0,0,0,0,0,0,0,0,0,-0.1654,-0.1656,-0.1746,-0.1747,-0.1747,-0.1802,-0.1803,-0.1803,-0.1835,-0.1836,-0.1836,-0.1837,-0.1891,-0.1893,-0.1894,0,0,0,0,0,0,0,0,0,0,0,0,0,-0.1699,-0.1656,-0.1745,-0.1772,-0.1775,-0.1802,-0.1803,-0.1804,-0.1835,-0.1836,-0.1836,-0.1837,-0.1891,-0.1892,-0.1894,-0.1895,0,0,-0.19,-0.19,0,0,0,0,0,0,0,0,-0.1696,-0.1702,-0.1767,-0.177,-0.1774,-0.1814,-0.1791,-0.1835,-0.1835,-0.181,-0.1836,-0.1837,-0.1867,-0.1871,-0.1877,-0.1898,-0.19,-0.19,-0.1901,-0.1902,-0.1902,0,0,0,0,0,0,0,-0.1693,-0.1699,-0.1766,-0.1768,-0.1772,-0.1777,-0.1784,-0.1799,-0.1833,-0.1812,-0.1815,-0.1825,-0.1868,-0.1875,-0.1878,-0.1901,-0.19,-0.1901,-0.1902,-0.1903,-0.2003,-0.2004,0,0,0,0,0,0,-0.1691,-0.1697,-0.1764,-0.1768,-0.1738,-0.1779,-0.1786,-0.1799,-0.1833,-0.184,-0.1825,-0.1826,-0.1872,-0.1876,-0.1881,-0.196,-0.1902,-0.1903,-0.1904,-0.2001,-0.2003,-0.2005,0,0,0,0,0,0,-0.1689,-0.1696,-0.1762,-0.1735,-0.1744,-0.178,-0.1794,-0.18,-0.1836,-0.1843,-0.1849,-0.1858,-0.1872,-0.1878,-0.1922,-0.1959,-0.1904,-0.1906,-0.1999,-0.2002,-0.2004,-0.207,0,0,0,0,0,0,-0.1686,-0.1695,-0.1716,-0.1735,-0.1746,-0.1798,-0.1794,-0.1801,-0.184,-0.1844,-0.1873,-0.1877,-0.1873,-0.192,-0.1924,-0.1961,-0.1907,-0.1997,-0.2,-0.2003,-0.2066,-0.2074,-0.2081,0,0,0,0,0,-0.1682,-0.1704,-0.1716,-0.1725,-0.1769,-0.18,-0.1806,-0.1831,-0.1842,-0.1864,-0.1886,-0.1878,-0.1942,-0.1923,-0.1927,-0.1965,-0.1996,-0.1999,-0.2003,-0.2062,-0.2072,-0.2081,0,0,0,0,0,0,-0.1675,-0.171,-0.1724,-0.1756,-0.1787,-0.1807,-0.1833,-0.1849,-0.1883,-0.1895,-0.1898,-0.1904,-0.1955,-0.1952,-0.1931,-0.2003,-0.1968,-0.1972,-0.2011,-0.2021,-0.2029,-0.2019,-0.1908,0,0,0,0,0,-0.1683,-0.171,-0.1741,-0.177,-0.1789,-0.1817,-0.1838,-0.1857,-0.1884,-0.1901,-0.1923,-0.1946,-0.1969,-0.1989,-0.2005,-0.2047,-0.2032,-0.2074,-0.2082,-0.2089,-0.2085,-0.2097,-0.2106,-0.2017,-0.2016,-0.2016,0,0,-0.1688,-0.1712,-0.1728,-0.1772,-0.1797,-0.1832,-0.1831,-0.1874,-0.191,-0.1901,-0.1964,-0.1976,-0.1986,-0.2031,-0.2054,-0.2038,-0.2109,-0.2093,-0.2099,-0.2091,-0.2102,-0.211,-0.2118,-0.2019,-0.2018,-0.2018,0,0,-0.1703,-0.1736,-0.1762,-0.1794,-0.1842,-0.1861,-0.1881,-0.1923,-0.1952,-0.2005,-0.2009,-0.2044,-0.2086,-0.2098,-0.2107,-0.217,-0.2148,-0.2182,-0.2219,-0.2232,-0.2239,-0.2245,-0.2243,-0.2248,-0.2189,-0.2189,-0.2189,0,-0.1711,-0.1747,-0.1776,-0.1811,-0.1843,-0.1879,-0.1917,-0.1952,-0.2005,-0.2032,-0.2037,-0.2103,-0.2114,-0.216,-0.2183,-0.2188,-0.2184,-0.2183,-0.2242,-0.2247,-0.2252,-0.2248,-0.2253,-0.2192,-0.2192,-0.2192,-0.2191,0,-0.1737,-0.1781,-0.1802,-0.1859,-0.1898,-0.1938,-0.1988,-0.2034,-0.2074,-0.2104,-0.2169,-0.2185,-0.2218,-0.2236,-0.2229,-0.2277,-0.226,-0.2248,-0.2215,-0.2265,-0.2258,-0.2262,-0.2197,-0.2196,-0.2195,-0.2194,0,0,-0.1707,-0.1802,-0.1811,-0.1852,-0.1928,-0.196,-0.2029,-0.2093,-0.2142,-0.2194,-0.2248,-0.2292,-0.23,-0.231,-0.2313,-0.2328,-0.2364,-0.2308,-0.2307,-0.23,-0.2386,-0.2244,-0.2234,-0.2365,-0.2366,-0.2367,-0.2368,0,-0.172,-0.1792,-0.1838,-0.1916,-0.1956,-0.2019,-0.2079,-0.2145,-0.2201,-0.2264,-0.2292,-0.2343,-0.233,-0.2351,-0.2367,-0.2366,-0.2377,-0.2364,-0.2342,-0.2341,-0.2204,-0.2234,-0.237,-0.2371,-0.2372,-0.2372,-0.2373,0,-0.1717,-0.1771,-0.1847,-0.1949,-0.1974,-0.2031,-0.213,-0.2188,-0.2277,-0.2322,-0.2373,-0.2395,-0.2434,-0.2411,-0.243,-0.2424,-0.2409,-0.2402,-0.2401,-0.2244,-0.2205,-0.2309,-0.2379,-0.2378,-0.2378,-0.2378,-0.2377,0,-0.1664,-0.1772,-0.1835,-0.1872,-0.1991,-0.2044,-0.2108,-0.2206,-0.2258,-0.2356,-0.2397,-0.2448,-0.2472,-0.2472,-0.2455,-0.2451,-0.246,-0.245,-0.2307,-0.2297,-0.2396,-0.2389,-0.2456,-0.2456,-0.2456,-0.2456,-0.2456,0,-0.1635,-0.169,-0.1825,-0.1859,-0.1939,-0.203,-0.2116,-0.2189,-0.2287,-0.2336,-0.2417,-0.2445,-0.2489,-0.2496,-0.2475,-0.2392,-0.2475,-0.2307,-0.2286,-0.2425,-0.2421,-0.2398,-0.2392,-0.2456,-0.2456,-0.2456,-0.2456,0,-0.1555,-0.1647,-0.1726,-0.1867,-0.1916,-0.1969,-0.2106,-0.2154,-0.2267,-0.2329,-0.2358,-0.2451,-0.2455,-0.2474,-0.2473,-0.2396,-0.2348,-0.23,-0.2445,-0.2433,-0.2174,-0.2171,-0.2136,-0.2131,-0.2127,-0.2123,-0.212,0,-0.1516,-0.1552,-0.1709,-0.1753,-0.1821,-0.1922,-0.1979,-0.212,-0.2164,-0.2305,-0.2309,-0.2373,-0.2408,-0.2291,-0.2335,-0.228,-0.2252,-0.2215,-0.219,-0.2157,-0.2141,-0.2145,-0.2148,-0.2114,-0.2112,-0.2111,-0.211,0,-0.1431,-0.1501,-0.1563,-0.166,-0.1737,-0.1811,-0.1907,-0.1928,-0.2068,-0.2195,-0.2198,-0.2196,-0.22,-0.2189,-0.2159,-0.2123,-0.2233,-0.217,-0.2178,-0.2154,-0.213,-0.2118,-0.2126,-0.2095,-0.2098,-0.2099,-0.21,0,-0.1359,-0.138,-0.1471,-0.1538,-0.1628,-0.1662,-0.1738,-0.1788,-0.1854,-0.2012,-0.2009,-0.2082,-0.2176,-0.2108,-0.2084,-0.2032,-0.2,-0.1931,-0.1951,-0.1968,-0.1911,-0.1855,-0.171,0,0,0,0,0,-0.1275,-0.1287,-0.1341,-0.1408,-0.1489,-0.1544,-0.1667,-0.1744,-0.1886,-0.1834,-0.1917,-0.1912,-0.1888,-0.1938,-0.1844,-0.2002,-0.2003,-0.1886,-0.1934,-0.2013,-0.203,-0.1977,0,0,0,0,0,0,-0.122,-0.1265,-0.1292,-0.1279,-0.1297,-0.1373,-0.1443,-0.1546,-0.1535,-0.1683,-0.1679,-0.1793,-0.1794,-0.1901,-0.1802,-0.1813,-0.1803,-0.1943,-0.1938,-0.2004,-0.2019,-0.2033,-0.1984,0,0,0,0,0]},{"header":{"parameterUnit":"m.s-1","parameterCategory":2,"la1":30.2991,"la2":30.254,"lo1":-89.0895,"lo2":-89.0444,"dy":0.0017,"dx":0.0017,"nx":28,"ny":28,"refTime":"2023-11-02T09:00:00:Z","depth":"4","parameterNumber":3,"parameterNumberName":"V-component_of_CURRENTS"},"data":[0,0,0,0,0,0,0,0,0,0,0,0,0,0,0,0,0,0,0,0,0,0,0,0,0,0,0,0,0,0,0,0,0,0,0,0,0,0,0,0,0,0,0,0,0,0,0,0,0,0,0,0,0,0,0,0,0,0,-0.0127,-0.0127,0,-0.008,-0.008,-0.0079,-0.0051,-0.0051,-0.005,-0.005,0.0028,0.003,0.0032,0,0,0,0,0,0,0,0,0,0,0,0,0,-0.0159,-0.0159,-0.0127,-0.0127,-0.0126,-0.0081,-0.008,-0.0079,-0.0051,-0.0051,-0.005,-0.005,0.0028,0.003,0.0032,0,0,0,0,0,0,0,0,0,0,0,0,0,-0.0132,-0.0158,-0.0127,-0.0107,-0.0104,-0.0081,-0.008,-0.0079,-0.0051,-0.0051,-0.005,-0.005,0.0027,0.003,0.0033,0.0047,0,0,0.0042,0.0043,0,0,0,0,0,0,0,0,-0.0133,-0.0131,-0.011,-0.0108,-0.0105,-0.0071,-0.0062,-0.0035,-0.0051,-0.0071,-0.005,-0.005,-0.0002,0.0003,0.0011,0.0051,0.0054,0.0042,0.0044,0.0045,0.0046,0,0,0,0,0,0,0,-0.0135,-0.0132,-0.0108,-0.011,-0.0107,-0.0088,-0.0085,-0.0057,-0.0037,-0.0069,-0.0067,-0.0062,-0.0001,0.0008,0.0013,0.0055,0.0042,0.0045,0.0046,0.0048,0.0104,0.0104,0,0,0,0,0,0,-0.0144,-0.0134,-0.011,-0.0107,-0.0119,-0.0088,-0.0084,-0.0082,-0.0038,-0.0032,-0.0062,-0.0061,0.0003,0.001,0.0016,0.0026,0.0045,0.0048,0.005,0.0105,0.0104,0.0104,0,0,0,0,0,0,-0.0144,-0.0142,-0.0112,-0.012,-0.0114,-0.0088,-0.0086,-0.0082,-0.0075,-0.0034,-0.0026,-0.0061,0.0004,0.0012,0.0035,0.003,0.0049,0.0052,0.0105,0.0105,0.0104,0.0053,0,0,0,0,0,0,-0.0146,-0.0143,-0.0148,-0.012,-0.0114,-0.0106,-0.0086,-0.0081,-0.0072,-0.007,-0.003,-0.0022,0.0004,0.0031,0.0038,0.0035,0.0054,0.0105,0.0105,0.0104,0.0055,0.0051,0.0048,0,0,0,0,0,-0.0147,-0.0155,-0.0148,-0.0145,-0.0121,-0.0106,-0.0102,-0.0082,-0.0072,-0.0074,-0.0046,-0.0024,0.0033,0.0033,0.0042,0.0039,0.0106,0.0105,0.0104,0.0057,0.0052,0.0048,0,0,0,0,0,0,-0.0171,-0.0152,-0.0144,-0.0146,-0.0131,-0.0102,-0.0102,-0.0086,-0.0066,-0.0065,-0.0025,-0.0015,0.0002,0.0027,0.0026,0.0053,0.0072,0.0073,0.0033,0.0029,0.0025,0.0015,0.0057,0,0,0,0,0,-0.0179,-0.0181,-0.0158,-0.0161,-0.0156,-0.013,-0.0122,-0.0109,-0.0086,-0.0077,-0.0049,-0.0019,0.0007,0.0022,0.0047,0.0065,0.0095,0.0068,0.0064,0.0061,0.0059,0.0103,0.0103,0.0102,0.0102,0.0102,0,0,-0.0189,-0.018,-0.0181,-0.0167,-0.0154,-0.0154,-0.0125,-0.0119,-0.0117,-0.0071,-0.0062,-0.0032,0.0008,0.0024,0.0034,0.0045,0.0075,0.006,0.0057,0.0057,0.0102,0.0102,0.0102,0.0102,0.0102,0.0102,0,0,-0.0215,-0.0204,-0.0217,-0.0207,-0.0193,-0.0176,-0.0177,-0.0152,-0.0139,-0.0125,-0.0092,-0.0065,-0.0029,0.0001,0.002,0.0012,0.0052,0.0017,-0.0006,0.0036,0.0037,0.0038,0.0069,0.0073,0.0018,0.0018,0.0018,0,-0.023,-0.0242,-0.0218,-0.0226,-0.0224,-0.019,-0.0203,-0.0183,-0.0154,-0.0144,-0.0131,-0.0072,-0.0039,-0.0009,-0.0014,0.0004,0.003,0.0007,0.0031,0.0033,0.0035,0.0066,0.0072,0.0015,0.0015,0.0016,0.0016,0,-0.0262,-0.0274,-0.028,-0.0281,-0.0274,-0.0279,-0.025,-0.0242,-0.0222,-0.0197,-0.0167,-0.0118,-0.0082,-0.0067,-0.0042,-0.0016,-0.0001,0.0019,0.0042,0.0031,0.0066,0.0072,0.0011,0.0012,0.0013,0.0014,0,0,-0.0289,-0.0303,-0.0306,-0.0323,-0.0305,-0.0306,-0.03,-0.0284,-0.0286,-0.0241,-0.0229,-0.0176,-0.0143,-0.0119,-0.0078,-0.0039,-0.0005,-0.001,-0.0007,0.0018,0.0081,0.0088,0.0096,0.002,0.0021,0.0021,0.0097,0,-0.0325,-0.0365,-0.0354,-0.0388,-0.0405,-0.0375,-0.0372,-0.035,-0.0326,-0.0304,-0.0234,-0.0206,-0.0163,-0.0147,-0.01,-0.0026,0.001,-0.0028,0.009,0.0093,0.0099,0.0103,0.0024,0.0102,0.0103,0.0105,0.0105,0,-0.0357,-0.0382,-0.0427,-0.0451,-0.0454,-0.0465,-0.0463,-0.0459,-0.041,-0.0383,-0.0333,-0.0278,-0.0205,-0.0171,-0.0046,-0.0073,-0.0006,0.0053,0.0058,0.0087,0.0112,0.0118,0.0117,0.0116,0.0115,0.0115,0.0114,0,-0.0393,-0.0432,-0.0475,-0.0482,-0.0497,-0.0511,-0.0514,-0.0486,-0.0486,-0.0433,-0.0417,-0.0322,-0.0271,-0.0169,-0.004,-0.0045,0.0098,0.0109,0.0178,0.0179,0.0172,0.0171,0.0189,0.0189,0.0188,0.0188,0.0188,0,-0.0428,-0.0465,-0.0502,-0.0526,-0.0578,-0.0563,-0.06,-0.0585,-0.0557,-0.0557,-0.0464,-0.0428,-0.0267,-0.0163,-0.0053,0.0087,0.0093,0.0175,0.0202,0.0148,0.0143,0.0177,0.0174,0.0191,0.019,0.019,0.0189,0,-0.0456,-0.0481,-0.0541,-0.0581,-0.06,-0.0636,-0.0664,-0.0684,-0.0646,-0.0641,-0.062,-0.0496,-0.0357,-0.0198,-0.0023,0.0067,0.0201,0.0246,0.0173,0.0194,0.0252,0.0246,0.0322,0.0323,0.0323,0.0324,0.0325,0,-0.0473,-0.0507,-0.0589,-0.0637,-0.0663,-0.0713,-0.0745,-0.0731,-0.074,-0.0682,-0.0671,-0.054,-0.0443,-0.0185,-0.0018,0.0198,0.0226,0.0291,0.0274,0.0249,0.0268,0.026,0.0253,0.0326,0.0326,0.0326,0.0326,0,-0.0503,-0.0538,-0.0589,-0.069,-0.0751,-0.0809,-0.0846,-0.0855,-0.0828,-0.0799,-0.0705,-0.0562,-0.0401,-0.0191,-0.0014,0.0138,0.025,0.03,0.0299,0.0283,0.0255,0.0271,0.0263,0.0329,0.0329,0.0329,0.0328,0,-0.0521,-0.057,-0.0646,-0.0731,-0.0817,-0.0876,-0.0894,-0.0885,-0.0879,-0.0801,-0.0771,-0.0588,-0.0473,-0.0222,-0.0061,0.0097,0.0128,0.0169,0.0176,0.0175,0.0114,0.0056,0.0093,0,0,0,0,0,-0.0528,-0.0589,-0.068,-0.0774,-0.086,-0.0904,-0.0947,-0.0945,-0.0919,-0.0865,-0.0814,-0.0661,-0.0402,-0.0276,-0.012,-0.0056,0.0148,0.0132,0.0196,0.0344,0.0341,0.0297,0,0,0,0,0,0,-0.0536,-0.0622,-0.0677,-0.0788,-0.0855,-0.0938,-0.0969,-0.0955,-0.0905,-0.0857,-0.0714,-0.0629,-0.0371,-0.0495,-0.0119,-0.0068,-0.0008,0.0261,0.0264,0.0346,0.0343,0.0341,0.0294,0,0,0,0,0]}]]